contact:dominique.lefevre@mio.osupytheas.fr, maurice.libes@osupytheas.fr, didier.mallarino@osupytheas.fr
Project:EMSO http://www.emso-fr.org/EMSO-France
Depth: 2436.0 m
Title:EMSO Ligure Ouest : Data MII capteur MICROCAT
DateTime_Computer,Latitude,Longitude,Temperature,Conductivity,Pressure,DateTime_Instrument
DateTime_Computer,Latitude,Longitude,degC,S m-1,dbar,DateTime_Instrument
2020-09-15T00:00:41Z,42.805,6.029,13.2970,4.59973,2470.04,2020-9-15T02:01:33Z
2020-09-15T00:03:45Z,42.805,6.029,13.2978,4.59973,2470.053,2020-9-15T02:04:37Z
2020-09-15T00:06:46Z,42.805,6.029,13.2970,4.59973,2470.04,2020-9-15T02:07:38Z
2020-09-15T00:09:50Z,42.805,6.029,13.2973,4.59973,2470.04,2020-9-15T02:10:41Z
2020-09-15T00:12:55Z,42.805,6.029,13.2974,4.59973,2470.04,2020-9-15T02:13:46Z
2020-09-15T00:15:59Z,42.805,6.029,13.2969,4.59975,2470.053,2020-9-15T02:16:51Z
2020-09-15T00:19:02Z,42.805,6.029,13.2972,4.59974,2470.017,2020-9-15T02:19:54Z
2020-09-15T00:22:06Z,42.805,6.029,13.2968,4.59973,2470.03,2020-9-15T02:22:57Z
2020-09-15T00:25:08Z,42.805,6.029,13.2973,4.59973,2470.03,2020-9-15T02:26:00Z
2020-09-15T00:28:13Z,42.805,6.029,13.2971,4.59973,2470.04,2020-9-15T02:29:04Z
2020-09-15T00:31:14Z,42.805,6.029,13.2975,4.59974,2470.063,2020-9-15T02:32:06Z
2020-09-15T00:34:18Z,42.805,6.029,13.2968,4.59973,2470.04,2020-9-15T02:35:09Z
2020-09-15T00:37:21Z,42.805,6.029,13.2971,4.59973,2470.053,2020-9-15T02:38:13Z
2020-09-15T00:40:25Z,42.805,6.029,13.2974,4.59973,2470.087,2020-9-15T02:41:16Z
2020-09-15T00:43:29Z,42.805,6.029,13.2974,4.59973,2470.04,2020-9-15T02:44:20Z
2020-09-15T00:46:30Z,42.805,6.029,13.2974,4.59975,2470.077,2020-9-15T02:47:22Z
2020-09-15T00:49:35Z,42.805,6.029,13.2975,4.59974,2470.04,2020-9-15T02:50:27Z
2020-09-15T00:52:37Z,42.805,6.029,13.2973,4.59973,2470.087,2020-9-15T02:53:29Z
2020-09-15T00:55:40Z,42.805,6.029,13.2974,4.59974,2470.04,2020-9-15T02:56:32Z
2020-09-15T00:58:42Z,42.805,6.029,13.2976,4.59973,2470.04,2020-9-15T02:59:33Z
2020-09-15T01:01:44Z,42.805,6.029,13.2973,4.59973,2470.053,2020-9-15T03:02:36Z
2020-09-15T01:04:46Z,42.805,6.029,13.2972,4.59973,2470.077,2020-9-15T03:05:38Z
2020-09-15T01:07:50Z,42.805,6.029,13.2974,4.59973,2470.063,2020-9-15T03:08:41Z
2020-09-15T01:10:52Z,42.805,6.029,13.2976,4.59972,2470.04,2020-9-15T03:11:43Z
2020-09-15T01:13:55Z,42.805,6.029,13.2970,4.59973,2470.087,2020-9-15T03:14:47Z
2020-09-15T01:17:00Z,42.805,6.029,13.2971,4.59973,2470.063,2020-9-15T03:17:52Z
2020-09-15T01:20:05Z,42.805,6.029,13.2971,4.59973,2470.04,2020-9-15T03:20:57Z
2020-09-15T01:23:09Z,42.805,6.029,13.2973,4.59973,2470.063,2020-9-15T03:24:01Z
2020-09-15T01:26:13Z,42.805,6.029,13.2970,4.59973,2470.04,2020-9-15T03:27:04Z
2020-09-15T01:29:16Z,42.805,6.029,13.2968,4.59973,2470.063,2020-9-15T03:30:07Z
2020-09-15T01:32:17Z,42.805,6.029,13.2973,4.59973,2470.04,2020-9-15T03:33:09Z
2020-09-15T01:35:22Z,42.805,6.029,13.2976,4.59973,2470.063,2020-9-15T03:36:13Z
2020-09-15T01:38:24Z,42.805,6.029,13.2974,4.59973,2470.04,2020-9-15T03:39:15Z
2020-09-15T01:41:29Z,42.805,6.029,13.2973,4.59974,2470.077,2020-9-15T03:42:20Z
2020-09-15T01:44:32Z,42.805,6.029,13.2972,4.59973,2470.04,2020-9-15T03:45:24Z
2020-09-15T01:47:36Z,42.805,6.029,13.2971,4.59973,2470.04,2020-9-15T03:48:28Z
2020-09-15T01:50:40Z,42.805,6.029,13.2974,4.59973,2470.063,2020-9-15T03:51:31Z
2020-09-15T01:53:42Z,42.805,6.029,13.2974,4.59974,2470.063,2020-9-15T03:54:33Z
2020-09-15T01:56:45Z,42.805,6.029,13.2972,4.59973,2470.04,2020-9-15T03:57:37Z
2020-09-15T01:59:46Z,42.805,6.029,13.2972,4.59973,2470.063,2020-9-15T04:00:38Z
2020-09-15T02:02:48Z,42.805,6.029,13.2971,4.59973,2470.1,2020-9-15T04:03:39Z
2020-09-15T02:05:51Z,42.805,6.029,13.2970,4.59974,2470.063,2020-9-15T04:06:43Z
2020-09-15T02:08:53Z,42.805,6.029,13.2968,4.59973,2470.063,2020-9-15T04:09:44Z
2020-09-15T02:11:56Z,42.805,6.029,13.2971,4.59973,2470.063,2020-9-15T04:12:47Z
2020-09-15T02:14:59Z,42.805,6.029,13.2971,4.59975,2470.04,2020-9-15T04:15:51Z
2020-09-15T02:18:02Z,42.805,6.029,13.2971,4.59974,2470.063,2020-9-15T04:18:54Z
2020-09-15T02:21:07Z,42.805,6.029,13.2969,4.59973,2470.063,2020-9-15T04:21:58Z
2020-09-15T02:24:10Z,42.805,6.029,13.2971,4.59975,2470.1,2020-9-15T04:25:02Z
2020-09-15T02:27:14Z,42.805,6.029,13.2973,4.59973,2470.087,2020-9-15T04:28:05Z
2020-09-15T02:30:18Z,42.805,6.029,13.2975,4.59974,2470.063,2020-9-15T04:31:10Z
2020-09-15T02:33:21Z,42.805,6.029,13.2974,4.59973,2470.087,2020-9-15T04:34:13Z
2020-09-15T02:36:24Z,42.805,6.029,13.2974,4.59974,2470.087,2020-9-15T04:37:16Z
2020-09-15T02:39:28Z,42.805,6.029,13.2973,4.59974,2470.087,2020-9-15T04:40:19Z
2020-09-15T02:42:32Z,42.805,6.029,13.2976,4.59974,2470.124,2020-9-15T04:43:24Z
2020-09-15T02:45:35Z,42.805,6.029,13.2975,4.59973,2470.1,2020-9-15T04:46:26Z
2020-09-15T02:48:39Z,42.805,6.029,13.2972,4.59975,2470.077,2020-9-15T04:49:31Z
2020-09-15T02:51:41Z,42.805,6.029,13.2968,4.59973,2470.1,2020-9-15T04:52:33Z
2020-09-15T02:54:42Z,42.805,6.029,13.2976,4.59973,2470.11,2020-9-15T04:55:34Z
2020-09-15T02:57:44Z,42.805,6.029,13.2975,4.59973,2470.11,2020-9-15T04:58:36Z
2020-09-15T03:00:49Z,42.805,6.029,13.2971,4.59973,2470.096,2020-9-15T05:01:40Z
2020-09-15T03:03:51Z,42.805,6.029,13.2970,4.59975,2470.1,2020-9-15T05:04:42Z
2020-09-15T03:06:52Z,42.805,6.029,13.2973,4.59974,2470.087,2020-9-15T05:07:44Z
2020-09-15T03:09:55Z,42.805,6.029,13.2974,4.59974,2470.087,2020-9-15T05:10:47Z
2020-09-15T03:12:59Z,42.805,6.029,13.2971,4.59974,2470.11,2020-9-15T05:13:51Z
2020-09-15T03:16:02Z,42.805,6.029,13.2975,4.59973,2470.087,2020-9-15T05:16:54Z
2020-09-15T03:19:05Z,42.805,6.029,13.2971,4.59975,2470.133,2020-9-15T05:19:57Z
2020-09-15T03:22:09Z,42.805,6.029,13.2977,4.59978,2470.133,2020-9-15T05:23:00Z
2020-09-15T03:25:12Z,42.805,6.029,13.2971,4.59975,2470.124,2020-9-15T05:26:04Z
2020-09-15T03:28:17Z,42.805,6.029,13.2974,4.59974,2470.147,2020-9-15T05:29:09Z
2020-09-15T03:31:19Z,42.805,6.029,13.2974,4.59976,2470.11,2020-9-15T05:32:10Z
2020-09-15T03:34:22Z,42.805,6.029,13.2973,4.59974,2470.096,2020-9-15T05:35:14Z
2020-09-15T03:37:23Z,42.805,6.029,13.2973,4.59975,2470.133,2020-9-15T05:38:15Z
2020-09-15T03:40:28Z,42.805,6.029,13.2970,4.59975,2470.124,2020-9-15T05:41:20Z
2020-09-15T03:43:30Z,42.805,6.029,13.2975,4.59975,2470.11,2020-9-15T05:44:21Z
2020-09-15T03:46:31Z,42.805,6.029,13.2976,4.59975,2470.133,2020-9-15T05:47:23Z
2020-09-15T03:49:33Z,42.805,6.029,13.2971,4.59974,2470.156,2020-9-15T05:50:24Z
2020-09-15T03:52:36Z,42.805,6.029,13.2971,4.59973,2470.133,2020-9-15T05:53:28Z
2020-09-15T03:55:40Z,42.805,6.029,13.2971,4.59974,2470.133,2020-9-15T05:56:32Z
2020-09-15T03:58:44Z,42.805,6.029,13.2974,4.59975,2470.171,2020-9-15T05:59:36Z
2020-09-15T04:01:45Z,42.805,6.029,13.2975,4.59974,2470.133,2020-9-15T06:02:37Z
2020-09-15T04:04:48Z,42.805,6.029,13.2974,4.59975,2470.119,2020-9-15T06:05:39Z
2020-09-15T04:07:51Z,42.805,6.029,13.2974,4.59975,2470.171,2020-9-15T06:08:43Z
2020-09-15T04:10:55Z,42.805,6.029,13.2975,4.59976,2470.133,2020-9-15T06:11:46Z
2020-09-15T04:13:56Z,42.805,6.029,13.2971,4.59975,2470.171,2020-9-15T06:14:48Z
2020-09-15T04:16:59Z,42.805,6.029,13.2969,4.59974,2470.133,2020-9-15T06:17:51Z
2020-09-15T04:20:03Z,42.805,6.029,13.2975,4.59973,2470.11,2020-9-15T06:20:53Z
2020-09-15T04:23:06Z,42.805,6.029,13.2974,4.59973,2470.143,2020-9-15T06:23:58Z
2020-09-15T04:26:10Z,42.805,6.029,13.2975,4.59976,2470.156,2020-9-15T06:27:01Z
2020-09-15T04:29:13Z,42.805,6.029,13.2971,4.59973,2470.171,2020-9-15T06:30:05Z
2020-09-15T04:32:17Z,42.805,6.029,13.2973,4.59974,2470.156,2020-9-15T06:33:09Z
2020-09-15T04:35:21Z,42.805,6.029,13.2973,4.59974,2470.18,2020-9-15T06:36:12Z
2020-09-15T04:38:24Z,42.805,6.029,13.2976,4.59974,2470.171,2020-9-15T06:39:16Z
2020-09-15T04:41:28Z,42.805,6.029,13.2974,4.59975,2470.194,2020-9-15T06:42:19Z
2020-09-15T04:44:30Z,42.805,6.029,13.2971,4.59976,2470.133,2020-9-15T06:45:22Z
2020-09-15T04:47:32Z,42.805,6.029,13.2974,4.59974,2470.18,2020-9-15T06:48:24Z
2020-09-15T04:50:36Z,42.805,6.029,13.2975,4.59974,2470.156,2020-9-15T06:51:28Z
2020-09-15T04:53:40Z,42.805,6.029,13.2974,4.59974,2470.156,2020-9-15T06:54:32Z
2020-09-15T04:56:45Z,42.805,6.029,13.2974,4.59974,2470.156,2020-9-15T06:57:37Z
2020-09-15T04:59:50Z,42.805,6.029,13.2971,4.59974,2470.171,2020-9-15T07:00:42Z
2020-09-15T05:02:55Z,42.805,6.029,13.2974,4.59974,2470.18,2020-9-15T07:03:46Z
2020-09-15T05:05:59Z,42.805,6.029,13.2976,4.59975,2470.156,2020-9-15T07:06:51Z
2020-09-15T05:09:04Z,42.805,6.029,13.2971,4.59974,2470.156,2020-9-15T07:09:56Z
2020-09-15T05:12:08Z,42.805,6.029,13.2971,4.59974,2470.194,2020-9-15T07:13:00Z
2020-09-15T05:15:12Z,42.805,6.029,13.2969,4.59976,2470.147,2020-9-15T07:16:03Z
2020-09-15T05:18:15Z,42.805,6.029,13.2976,4.59975,2470.156,2020-9-15T07:19:07Z
2020-09-15T05:21:20Z,42.805,6.029,13.2973,4.59975,2470.194,2020-9-15T07:22:12Z
2020-09-15T05:24:24Z,42.805,6.029,13.2974,4.59974,2470.156,2020-9-15T07:25:15Z
2020-09-15T05:27:28Z,42.805,6.029,13.2973,4.59975,2470.133,2020-9-15T07:28:19Z
2020-09-15T05:30:33Z,42.805,6.029,13.2971,4.59975,2470.147,2020-9-15T07:31:24Z
2020-09-15T05:33:37Z,42.805,6.029,13.2973,4.59975,2470.171,2020-9-15T07:34:28Z
2020-09-15T05:36:40Z,42.805,6.029,13.2976,4.59975,2470.18,2020-9-15T07:37:32Z
2020-09-15T05:39:43Z,42.805,6.029,13.2978,4.59973,2470.171,2020-9-15T07:40:34Z
2020-09-15T05:42:46Z,42.805,6.029,13.2973,4.59975,2470.18,2020-9-15T07:43:38Z
2020-09-15T05:45:50Z,42.805,6.029,13.2976,4.59975,2470.156,2020-9-15T07:46:42Z
2020-09-15T05:48:53Z,42.805,6.029,13.2976,4.59974,2470.133,2020-9-15T07:49:44Z
2020-09-15T05:51:56Z,42.805,6.029,13.2971,4.59976,2470.171,2020-9-15T07:52:48Z
2020-09-15T05:55:00Z,42.805,6.029,13.2973,4.59974,2470.171,2020-9-15T07:55:51Z
2020-09-15T05:58:02Z,42.805,6.029,13.2973,4.59974,2470.133,2020-9-15T07:58:54Z
2020-09-15T06:01:05Z,42.805,6.029,13.2971,4.59975,2470.18,2020-9-15T08:01:57Z
2020-09-15T06:04:09Z,42.805,6.029,13.2974,4.59974,2470.133,2020-9-15T08:05:01Z
2020-09-15T06:07:10Z,42.805,6.029,13.2971,4.59974,2470.133,2020-9-15T08:08:02Z
2020-09-15T06:10:14Z,42.805,6.029,13.2972,4.59974,2470.147,2020-9-15T08:11:06Z
2020-09-15T06:13:17Z,42.805,6.029,13.2973,4.59973,2470.156,2020-9-15T08:14:08Z
2020-09-15T06:16:18Z,42.805,6.029,13.2974,4.59973,2470.156,2020-9-15T08:17:09Z
2020-09-15T06:19:22Z,42.805,6.029,13.2967,4.59974,2470.156,2020-9-15T08:20:13Z
2020-09-15T06:22:25Z,42.805,6.029,13.2970,4.59974,2470.156,2020-9-15T08:23:17Z
2020-09-15T06:25:26Z,42.805,6.029,13.2970,4.59974,2470.147,2020-9-15T08:26:18Z
2020-09-15T06:28:29Z,42.805,6.029,13.2976,4.59974,2470.156,2020-9-15T08:29:20Z
2020-09-15T06:31:32Z,42.805,6.029,13.2970,4.59975,2470.133,2020-9-15T08:32:24Z
2020-09-15T06:34:33Z,42.805,6.029,13.2974,4.59976,2470.156,2020-9-15T08:35:25Z
2020-09-15T06:37:35Z,42.805,6.029,13.2974,4.59974,2470.156,2020-9-15T08:38:27Z
2020-09-15T06:40:39Z,42.805,6.029,13.2971,4.59975,2470.156,2020-9-15T08:41:30Z
2020-09-15T06:43:43Z,42.805,6.029,13.2971,4.59975,2470.133,2020-9-15T08:44:35Z
2020-09-15T06:46:46Z,42.805,6.029,13.2973,4.59974,2470.156,2020-9-15T08:47:38Z
2020-09-15T06:49:47Z,42.805,6.029,13.2971,4.59974,2470.11,2020-9-15T08:50:39Z
2020-09-15T06:52:50Z,42.805,6.029,13.2976,4.59974,2470.133,2020-9-15T08:53:41Z
2020-09-15T06:55:55Z,42.805,6.029,13.2972,4.59974,2470.133,2020-9-15T08:56:46Z
2020-09-15T06:58:58Z,42.805,6.029,13.2969,4.59974,2470.11,2020-9-15T08:59:50Z
2020-09-15T07:02:01Z,42.805,6.029,13.2972,4.59973,2470.133,2020-9-15T09:02:53Z
2020-09-15T07:05:05Z,42.805,6.029,13.2972,4.59973,2470.133,2020-9-15T09:05:57Z
2020-09-15T07:08:07Z,42.805,6.029,13.2972,4.59973,2470.133,2020-9-15T09:08:58Z
2020-09-15T07:11:10Z,42.805,6.029,13.2972,4.59975,2470.11,2020-9-15T09:12:02Z
2020-09-15T07:14:14Z,42.805,6.029,13.2971,4.59973,2470.133,2020-9-15T09:15:05Z
2020-09-15T07:17:17Z,42.805,6.029,13.2968,4.59973,2470.124,2020-9-15T09:18:09Z
2020-09-15T07:20:20Z,42.805,6.029,13.2971,4.59974,2470.156,2020-9-15T09:21:12Z
2020-09-15T07:23:24Z,42.805,6.029,13.2974,4.59973,2470.133,2020-9-15T09:24:15Z
2020-09-15T07:26:27Z,42.805,6.029,13.2971,4.59974,2470.11,2020-9-15T09:27:19Z
2020-09-15T07:29:29Z,42.805,6.029,13.2973,4.59973,2470.147,2020-9-15T09:30:21Z
2020-09-15T07:32:32Z,42.805,6.029,13.2974,4.59973,2470.156,2020-9-15T09:33:23Z
2020-09-15T07:35:36Z,42.805,6.029,13.2972,4.59973,2470.147,2020-9-15T09:36:28Z
2020-09-15T07:38:40Z,42.805,6.029,13.2974,4.59973,2470.133,2020-9-15T09:39:31Z
2020-09-15T07:41:43Z,42.805,6.029,13.2972,4.59973,2470.11,2020-9-15T09:42:35Z
2020-09-15T07:44:46Z,42.805,6.029,13.2973,4.59973,2470.11,2020-9-15T09:45:38Z
2020-09-15T07:47:50Z,42.805,6.029,13.2973,4.59973,2470.11,2020-9-15T09:48:41Z
2020-09-15T07:50:54Z,42.805,6.029,13.2972,4.59973,2470.11,2020-9-15T09:51:46Z
2020-09-15T07:53:55Z,42.805,6.029,13.2969,4.59973,2470.11,2020-9-15T09:54:47Z
2020-09-15T07:56:56Z,42.805,6.029,13.2973,4.59973,2470.133,2020-9-15T09:57:48Z
2020-09-15T07:59:58Z,42.805,6.029,13.2968,4.59973,2470.124,2020-9-15T10:00:50Z
2020-09-15T08:03:03Z,42.805,6.029,13.2972,4.59973,2470.087,2020-9-15T10:03:55Z
2020-09-15T08:06:07Z,42.805,6.029,13.2972,4.59973,2470.087,2020-9-15T10:06:59Z
2020-09-15T08:09:10Z,42.805,6.029,13.2971,4.59973,2470.087,2020-9-15T10:10:02Z
2020-09-15T08:12:15Z,42.805,6.029,13.2976,4.59973,2470.133,2020-9-15T10:13:07Z
2020-09-15T08:15:18Z,42.805,6.029,13.2975,4.59973,2470.1,2020-9-15T10:16:10Z
2020-09-15T08:18:21Z,42.805,6.029,13.2971,4.59973,2470.124,2020-9-15T10:19:13Z
2020-09-15T08:21:25Z,42.805,6.029,13.2972,4.59973,2470.11,2020-9-15T10:22:17Z
2020-09-15T08:24:28Z,42.805,6.029,13.2976,4.59973,2470.063,2020-9-15T10:25:20Z
2020-09-15T08:27:33Z,42.805,6.029,13.2971,4.59973,2470.1,2020-9-15T10:28:25Z
2020-09-15T08:30:34Z,42.805,6.029,13.2974,4.59973,2470.087,2020-9-15T10:31:26Z
2020-09-15T08:33:38Z,42.805,6.029,13.2974,4.59973,2470.124,2020-9-15T10:34:29Z
2020-09-15T08:36:41Z,42.805,6.029,13.2973,4.59975,2470.073,2020-9-15T10:37:33Z
2020-09-15T08:39:44Z,42.805,6.029,13.2974,4.59973,2470.11,2020-9-15T10:40:36Z
2020-09-15T08:42:45Z,42.805,6.029,13.2973,4.59973,2470.087,2020-9-15T10:43:37Z
2020-09-15T08:45:47Z,42.805,6.029,13.2977,4.59973,2470.087,2020-9-15T10:46:39Z
2020-09-15T08:48:50Z,42.805,6.029,13.2971,4.59973,2470.124,2020-9-15T10:49:41Z
2020-09-15T08:51:54Z,42.805,6.029,13.2971,4.59973,2470.087,2020-9-15T10:52:46Z
2020-09-15T08:54:58Z,42.805,6.029,13.2969,4.59973,2470.1,2020-9-15T10:55:49Z
2020-09-15T08:58:02Z,42.805,6.029,13.2969,4.59973,2470.124,2020-9-15T10:58:53Z
2020-09-15T09:01:06Z,42.805,6.029,13.2970,4.59973,2470.087,2020-9-15T11:01:58Z
2020-09-15T09:04:09Z,42.805,6.029,13.2975,4.59973,2470.087,2020-9-15T11:05:01Z
2020-09-15T09:07:13Z,42.805,6.029,13.2967,4.59973,2470.077,2020-9-15T11:08:04Z
2020-09-15T09:10:16Z,42.805,6.029,13.2971,4.59973,2470.063,2020-9-15T11:11:08Z
2020-09-15T09:13:19Z,42.805,6.029,13.2971,4.59974,2470.087,2020-9-15T11:14:11Z
2020-09-15T09:16:22Z,42.805,6.029,13.2975,4.59973,2470.1,2020-9-15T11:17:14Z
2020-09-15T09:19:26Z,42.805,6.029,13.2971,4.59973,2470.017,2020-9-15T11:20:17Z
2020-09-15T09:22:29Z,42.805,6.029,13.2975,4.59973,2470.063,2020-9-15T11:23:21Z
2020-09-15T09:25:32Z,42.805,6.029,13.2971,4.59973,2470.063,2020-9-15T11:26:24Z
2020-09-15T09:28:37Z,42.805,6.029,13.2973,4.59973,2470.087,2020-9-15T11:29:29Z
2020-09-15T09:31:38Z,42.805,6.029,13.2972,4.59972,2470.04,2020-9-15T11:32:30Z
2020-09-15T09:34:41Z,42.805,6.029,13.2968,4.59973,2470.087,2020-9-15T11:35:33Z
2020-09-15T09:37:45Z,42.805,6.029,13.2971,4.59973,2470.087,2020-9-15T11:38:37Z
2020-09-15T09:40:50Z,42.805,6.029,13.2974,4.59973,2470.063,2020-9-15T11:41:41Z
2020-09-15T09:43:52Z,42.805,6.029,13.2973,4.59973,2470.077,2020-9-15T11:44:44Z
2020-09-15T09:46:54Z,42.805,6.029,13.2974,4.59972,2470.077,2020-9-15T11:47:45Z
2020-09-15T09:49:58Z,42.805,6.029,13.2968,4.59973,2470.04,2020-9-15T11:50:50Z
2020-09-15T09:52:59Z,42.805,6.029,13.2974,4.59973,2470.04,2020-9-15T11:53:51Z
2020-09-15T09:56:02Z,42.805,6.029,13.2971,4.59972,2470.063,2020-9-15T11:56:54Z
2020-09-15T09:59:07Z,42.805,6.029,13.2968,4.59972,2470.053,2020-9-15T11:59:58Z
2020-09-15T10:02:10Z,42.805,6.029,13.2972,4.59972,2470.063,2020-9-15T12:03:02Z
2020-09-15T10:05:15Z,42.805,6.029,13.2971,4.59973,2470.04,2020-9-15T12:06:06Z
2020-09-15T10:08:19Z,42.805,6.029,13.2971,4.59972,2470.077,2020-9-15T12:09:11Z
2020-09-15T10:11:22Z,42.805,6.029,13.2971,4.59972,2470.04,2020-9-15T12:12:14Z
2020-09-15T10:14:25Z,42.805,6.029,13.2971,4.59972,2470.03,2020-9-15T12:15:17Z
2020-09-15T10:17:26Z,42.805,6.029,13.2976,4.59972,2470.077,2020-9-15T12:18:18Z
2020-09-15T10:20:30Z,42.805,6.029,13.2973,4.59973,2469.993,2020-9-15T12:21:21Z
2020-09-15T10:23:31Z,42.805,6.029,13.2969,4.59972,2470.017,2020-9-15T12:24:22Z
2020-09-15T10:26:34Z,42.805,6.029,13.2972,4.59972,2470.007,2020-9-15T12:27:25Z
2020-09-15T10:29:37Z,42.805,6.029,13.2970,4.59973,2470.04,2020-9-15T12:30:29Z
2020-09-15T10:32:41Z,42.805,6.029,13.2974,4.59973,2470.063,2020-9-15T12:33:33Z
2020-09-15T10:35:44Z,42.805,6.029,13.2970,4.59973,2470.04,2020-9-15T12:36:36Z
2020-09-15T10:38:49Z,42.805,6.029,13.2971,4.59973,2470.04,2020-9-15T12:39:41Z
2020-09-15T10:41:51Z,42.805,6.029,13.2975,4.59972,2470.007,2020-9-15T12:42:42Z
2020-09-15T10:44:54Z,42.805,6.029,13.2968,4.59973,2469.993,2020-9-15T12:45:46Z
2020-09-15T10:47:57Z,42.805,6.029,13.2972,4.59973,2470.017,2020-9-15T12:48:49Z
2020-09-15T10:51:01Z,42.805,6.029,13.2971,4.59973,2469.993,2020-9-15T12:51:52Z
2020-09-15T10:54:05Z,42.805,6.029,13.2971,4.59973,2470.04,2020-9-15T12:54:57Z
2020-09-15T10:57:07Z,42.805,6.029,13.2974,4.59973,2470.063,2020-9-15T12:57:59Z
2020-09-15T11:00:09Z,42.805,6.029,13.2972,4.59972,2470.04,2020-9-15T13:01:00Z
2020-09-15T11:03:12Z,42.805,6.029,13.2970,4.59973,2470.017,2020-9-15T13:04:04Z
2020-09-15T11:06:14Z,42.805,6.029,13.2973,4.59973,2470.04,2020-9-15T13:07:06Z
2020-09-15T11:09:18Z,42.805,6.029,13.2969,4.59974,2469.993,2020-9-15T13:10:09Z
2020-09-15T11:12:21Z,42.805,6.029,13.2972,4.59973,2470.017,2020-9-15T13:13:13Z
2020-09-15T11:15:24Z,42.805,6.029,13.2974,4.59973,2470.053,2020-9-15T13:16:16Z
2020-09-15T11:18:28Z,42.805,6.029,13.2972,4.59972,2470.04,2020-9-15T13:19:19Z
2020-09-15T11:21:29Z,42.805,6.029,13.2971,4.59972,2470.017,2020-9-15T13:22:21Z
2020-09-15T11:24:33Z,42.805,6.029,13.2974,4.59973,2470.017,2020-9-15T13:25:25Z
2020-09-15T11:27:36Z,42.805,6.029,13.2970,4.59973,2469.993,2020-9-15T13:28:27Z
2020-09-15T11:30:38Z,42.805,6.029,13.2970,4.59973,2470.017,2020-9-15T13:31:30Z
2020-09-15T11:33:41Z,42.805,6.029,13.2974,4.59973,2470.017,2020-9-15T13:34:33Z
2020-09-15T11:36:43Z,42.805,6.029,13.2976,4.59973,2470.04,2020-9-15T13:37:34Z
2020-09-15T11:39:45Z,42.805,6.029,13.2971,4.59973,2470.017,2020-9-15T13:40:35Z
2020-09-15T11:42:45Z,42.805,6.029,13.2972,4.59973,2470.017,2020-9-15T13:43:37Z
2020-09-15T11:45:47Z,42.805,6.029,13.2971,4.59972,2470.017,2020-9-15T13:46:38Z
2020-09-15T11:48:51Z,42.805,6.029,13.2969,4.59973,2470.017,2020-9-15T13:49:42Z
2020-09-15T11:51:54Z,42.805,6.029,13.2971,4.59973,2470.017,2020-9-15T13:52:46Z
2020-09-15T11:54:58Z,42.805,6.029,13.2972,4.59972,2469.984,2020-9-15T13:55:50Z
2020-09-15T11:58:00Z,42.805,6.029,13.2973,4.59973,2469.984,2020-9-15T13:58:52Z
2020-09-15T12:01:03Z,42.805,6.029,13.2968,4.59973,2470.03,2020-9-15T14:01:54Z
2020-09-15T12:04:04Z,42.805,6.029,13.2971,4.59974,2470.04,2020-9-15T14:04:56Z
2020-09-15T12:07:06Z,42.805,6.029,13.2974,4.59972,2470.017,2020-9-15T14:07:58Z
2020-09-15T12:10:11Z,42.805,6.029,13.2971,4.59973,2470.007,2020-9-15T14:11:03Z
2020-09-15T12:13:14Z,42.805,6.029,13.2973,4.59972,2469.993,2020-9-15T14:14:06Z
2020-09-15T12:16:15Z,42.805,6.029,13.2973,4.59971,2470.017,2020-9-15T14:17:07Z
2020-09-15T12:19:19Z,42.805,6.029,13.2972,4.59972,2469.993,2020-9-15T14:20:10Z
2020-09-15T12:22:22Z,42.805,6.029,13.2974,4.59972,2470.04,2020-9-15T14:23:14Z
2020-09-15T12:25:23Z,42.805,6.029,13.2974,4.59972,2470.017,2020-9-15T14:26:15Z
2020-09-15T12:28:26Z,42.805,6.029,13.2972,4.59973,2470.04,2020-9-15T14:29:18Z
2020-09-15T12:31:28Z,42.805,6.029,13.2967,4.59973,2470.053,2020-9-15T14:32:19Z
2020-09-15T12:34:29Z,42.805,6.029,13.2971,4.59973,2469.97,2020-9-15T14:35:21Z
2020-09-15T12:37:32Z,42.805,6.029,13.2975,4.59972,2470.053,2020-9-15T14:38:23Z
2020-09-15T12:40:35Z,42.805,6.029,13.2971,4.59972,2470.03,2020-9-15T14:41:27Z
2020-09-15T12:43:36Z,42.805,6.029,13.2974,4.59972,2470.017,2020-9-15T14:44:28Z
2020-09-15T12:46:40Z,42.805,6.029,13.2968,4.59973,2469.993,2020-9-15T14:47:31Z
2020-09-15T12:49:41Z,42.805,6.029,13.2970,4.59972,2470.007,2020-9-15T14:50:33Z
2020-09-15T12:52:43Z,42.805,6.029,13.2968,4.59973,2469.993,2020-9-15T14:53:34Z
2020-09-15T12:55:46Z,42.805,6.029,13.2971,4.59972,2470.017,2020-9-15T14:56:38Z
2020-09-15T12:58:50Z,42.805,6.029,13.2970,4.59973,2470.053,2020-9-15T14:59:41Z
2020-09-15T13:01:53Z,42.805,6.029,13.2966,4.59971,2469.993,2020-9-15T15:02:45Z
2020-09-15T13:04:57Z,42.805,6.029,13.2973,4.59973,2470.017,2020-9-15T15:05:49Z
2020-09-15T13:07:59Z,42.805,6.029,13.2975,4.59973,2470.053,2020-9-15T15:08:51Z
2020-09-15T13:11:01Z,42.805,6.029,13.2973,4.59972,2470.007,2020-9-15T15:11:53Z
2020-09-15T13:14:05Z,42.805,6.029,13.2976,4.59972,2470.017,2020-9-15T15:14:56Z
2020-09-15T13:17:09Z,42.805,6.029,13.2971,4.59973,2470.053,2020-9-15T15:18:01Z
2020-09-15T13:20:13Z,42.805,6.029,13.2974,4.59973,2470.04,2020-9-15T15:21:05Z
2020-09-15T13:23:17Z,42.805,6.029,13.2971,4.59972,2470.017,2020-9-15T15:24:08Z
2020-09-15T13:26:19Z,42.805,6.029,13.2974,4.59972,2470.053,2020-9-15T15:27:11Z
2020-09-15T13:29:21Z,42.805,6.029,13.2972,4.59971,2470.053,2020-9-15T15:30:13Z
2020-09-15T13:32:26Z,42.805,6.029,13.2974,4.59972,2470.04,2020-9-15T15:33:18Z
2020-09-15T13:35:31Z,42.805,6.029,13.2971,4.59972,2470.017,2020-9-15T15:36:22Z
2020-09-15T13:38:34Z,42.805,6.029,13.2971,4.59973,2470.03,2020-9-15T15:39:26Z
2020-09-15T13:41:38Z,42.805,6.029,13.2976,4.59972,2470.063,2020-9-15T15:42:29Z
2020-09-15T13:44:41Z,42.805,6.029,13.2971,4.59972,2470.017,2020-9-15T15:45:32Z
2020-09-15T13:47:44Z,42.805,6.029,13.2969,4.59973,2470.04,2020-9-15T15:48:36Z
2020-09-15T13:50:47Z,42.805,6.029,13.2972,4.59972,2470.04,2020-9-15T15:51:39Z
2020-09-15T13:53:52Z,42.805,6.029,13.2973,4.59973,2470.063,2020-9-15T15:54:44Z
2020-09-15T13:56:54Z,42.805,6.029,13.2971,4.59972,2470.063,2020-9-15T15:57:46Z
2020-09-15T13:59:58Z,42.805,6.029,13.2968,4.59973,2470.077,2020-9-15T16:00:50Z
2020-09-15T14:03:00Z,42.805,6.029,13.2971,4.59972,2470.063,2020-9-15T16:03:51Z
2020-09-15T14:06:02Z,42.805,6.029,13.2974,4.59972,2470.063,2020-9-15T16:06:54Z
2020-09-15T14:09:04Z,42.805,6.029,13.2967,4.59973,2470.04,2020-9-15T16:09:56Z
2020-09-15T14:12:08Z,42.805,6.029,13.2971,4.59973,2470.087,2020-9-15T16:13:00Z
2020-09-15T14:15:10Z,42.805,6.029,13.2968,4.59973,2470.063,2020-9-15T16:16:02Z
2020-09-15T14:18:12Z,42.805,6.029,13.2970,4.59973,2470.04,2020-9-15T16:19:04Z
2020-09-15T14:21:14Z,42.805,6.029,13.2970,4.59973,2470.087,2020-9-15T16:22:06Z
2020-09-15T14:24:17Z,42.805,6.029,13.2975,4.59973,2470.1,2020-9-15T16:25:08Z
2020-09-15T14:27:21Z,42.805,6.029,13.2972,4.59973,2470.087,2020-9-15T16:28:13Z
2020-09-15T14:30:22Z,42.805,6.029,13.2972,4.59972,2470.087,2020-9-15T16:31:14Z
2020-09-15T14:33:26Z,42.805,6.029,13.2972,4.59972,2470.087,2020-9-15T16:34:18Z
2020-09-15T14:36:30Z,42.805,6.029,13.2968,4.59972,2470.087,2020-9-15T16:37:21Z
2020-09-15T14:39:34Z,42.805,6.029,13.2972,4.59973,2470.087,2020-9-15T16:40:26Z
2020-09-15T14:42:39Z,42.805,6.029,13.2972,4.59972,2470.11,2020-9-15T16:43:30Z
2020-09-15T14:45:40Z,42.805,6.029,13.2966,4.59973,2470.1,2020-9-15T16:46:32Z
2020-09-15T14:48:41Z,42.805,6.029,13.2970,4.59973,2470.124,2020-9-15T16:49:33Z
2020-09-15T14:51:45Z,42.805,6.029,13.2974,4.59972,2470.087,2020-9-15T16:52:37Z
2020-09-15T14:54:47Z,42.805,6.029,13.2971,4.59973,2470.1,2020-9-15T16:55:38Z
2020-09-15T14:57:52Z,42.805,6.029,13.2971,4.59973,2470.11,2020-9-15T16:58:43Z
2020-09-15T15:00:54Z,42.805,6.029,13.2973,4.59973,2470.11,2020-9-15T17:01:46Z
2020-09-15T15:03:57Z,42.805,6.029,13.2974,4.59973,2470.133,2020-9-15T17:04:49Z
2020-09-15T15:07:01Z,42.805,6.029,13.2971,4.59972,2470.133,2020-9-15T17:07:53Z
2020-09-15T15:10:06Z,42.805,6.029,13.2975,4.59972,2470.087,2020-9-15T17:10:58Z
2020-09-15T15:13:07Z,42.805,6.029,13.2971,4.59973,2470.147,2020-9-15T17:13:59Z